Theta_e
298 296 294 293 291 289 288 288 288 288 288 288 288 287 286 286 285 285 283 282 282 282
295 294 292 290 289 288 288 288 287 287 287 287 286 286 285 284 283 283 283 282 281 280
292 291 290 289 288 287 287 287 286 285 285 285 285 284 284 283 283 282 282 281 279 279
289 289 289 287 287 286 285 285 285 284 284 284 284 283 282 281 281 280 280 280 279 278
288 288 286 285 285 285 284 284 284 284 283 283 282 282 281 280 279 278 278 278 278 277
286 285 285 284 284 284 284 283 283 283 282 281 281 281 280 279 278 277 277 277 277 277
285 285 285 284 284 283 283 282 281 281 281 280 280 279 280 279 278 277 277 278 277 277
285 284 284 282 281 281 281 281 281 280 280 279 279 279 279 278 278 277 277 277 277 277
283 282 281 281 281 281 280 280 280 279 280 278 279 282 282 279 277 277 277 276 276 277
281 280 280 280 280 280 280 280 280 280 280 279 280 282 281 281 278 278 277 277 277 277
280 280 280 279 279 279 279 279 278 278 279 279 281 283 282 280 278 277 277 276 276 276
279 279 279 278 278 278 277 277 277 277 277 276 277 280 280 279 278 277 276 277 276 275
279 279 278 278 277 278 277 277 277 277 276 277 276 279 280 279 278 276 276 276 277 278
279 278 277 277 277 277 277 277 276 276 276 275 276 276 278 278 277 276 275 276 276 276
Wind_Speed
13 9 11 12 11 10 9 8 10 11 10 11 10 9 7 5 7 7 6 9 7 6
14 15 14 16 14 10 11 11 11 10 11 9 11 8 6 6 7 7 7 7 7 5
14 16 15 15 15 13 12 13 11 11 12 10 8 6 7 7 6 7 5 5 7 5
16 17 17 14 13 12 12 10 10 11 10 9 6 7 8 8 6 8 7 6 7 6
18 19 18 16 12 12 11 11 11 9 9 8 8 6 6 7 6 7 7 6 6 5
18 18 16 15 15 11 12 10 10 8 8 8 7 7 6 7 7 7 6 6 6 5
19 17 14 14 14 13 9 10 10 8 8 7 7 7 6 7 6 6 6 5 5 5
16 15 14 14 12 11 11 9 9 9 7 7 7 5 6 6 6 5 5 5 4 4
16 16 14 12 12 12 11 9 8 8 7 8 6 12 11 8 5 4 4 4 3 4
16 14 12 12 12 12 10 8 8 8 8 8 6 13 11 9 3 3 4 4 3 3
13 12 12 11 11 9 8 8 7 7 7 7 5 9 7 5 2 3 5 4 3 2
12 13 11 11 9 8 9 8 7 6 6 7 5 7 5 4 4 4 2 2 1 3
11 11 10 10 9 6 8 8 6 7 6 8 5 7 8 6 2 1 1 3 2 2
10 10 9 9 8 8 8 7 6 7 6 7 6 5 7 6 3 4 4 3 2 3
Wind_Direction
126 124 122 124 124 117 113 109 101 97 92 92 92 78 73 91 84 81 77 76 72 75
119 121 121 116 113 113 114 111 105 98 95 91 87 98 99 94 89 89 80 77 75 76
114 112 112 111 111 113 111 106 107 101 101 100 98 101 97 88 82 90 90 85 80 65
114 112 109 101 107 108 104 107 112 109 110 106 112 100 98 94 101 96 88 78 75 65
115 111 108 104 100 100 104 107 114 108 110 111 104 97 102 106 94 88 83 90 83 63
110 110 108 111 108 112 105 111 106 104 102 103 102 103 93 89 90 88 87 81 78 69
108 108 110 110 109 104 113 109 102 106 108 109 99 89 89 91 91 85 81 82 85 74
102 105 98 99 107 108 106 105 108 108 101 95 92 90 89 90 85 96 99 92 88 96
103 97 106 115 113 109 104 106 110 104 102 86 92 101 93 87 88 86 82 77 71 93
100 110 117 118 110 107 113 114 104 98 101 111 105 99 93 87 92 90 88 69 51 32
106 117 106 100 101 108 108 108 105 104 100 95 108 113 111 114 95 67 69 67 55 32
117 109 111 110 113 115 112 104 99 101 105 100 83 103 97 67 44 59 37 110 112 72
107 108 107 113 112 99 97 97 96 90 78 106 97 72 60 51 39 48 42 9 353 204
99 107 103 95 86 86 90 98 102 100 85 73 67 58 62 43 37 27 11 335 342 54